Vertical_Velocity
2 2 -0 -1 1 1 1 -0 -1 -0 0 -1 -2 -1 2 3 3 2 1 -1 -2 -2 -0 0 0 0 0 -1 1 0 -0 0 0 0 1 2 3 2 2 2 1 0 -1 -3 -4 -4 -3 -2 -3 -5 -6 -4 -0 2 2 1 0 0 1 1 1 0 0 1 2 2 3 4 4
2 3 4 4 4 3 2 1 0 0 1 -1 -3 -1 3 4 2 1 -0 -2 -3 -1 1 3 -0 -0 1 1 1 0 -0 -1 -0 1 3 4 4 3 2 3 1 1 -1 -4 -4 -4 -3 -3 -5 -6 -6 -2 1 2 2 0 0 1 2 1 1 0 1 2 2 3 5 5 6
2 4 6 7 6 5 3 0 -0 0 1 -0 -3 -1 3 4 3 1 -1 -3 -2 0 4 5 -1 -2 -0 3 1 0 0 -1 -0 2 4 5 4 3 2 4 2 0 -1 -5 -5 -5 -5 -4 -6 -6 -5 -1 1 2 1 1 1 2 3 2 0 0 1 2 3 3 4 5 6
3 4 5 5 5 4 2 -1 -1 -0 0 -2 -3 -1 2 4 4 1 -1 -1 1 3 3 -1 -3 -2 0 2 3 2 0 -1 1 3 4 4 4 2 2 3 1 -0 -2 -6 -6 -6 -5 -4 -6 -5 -3 1 2 2 2 2 2 3 3 1 0 1 2 2 2 2 2 4 4
1 1 3 3 4 4 3 -0 -1 -1 -1 -3 -2 -0 2 5 4 1 -0 1 2 2 0 -3 -1 -0 1 3 5 3 0 -0 2 5 6 3 2 2 2 3 1 -0 -2 -6 -6 -6 -5 -5 -5 -3 -0 3 3 3 2 2 2 3 3 1 1 1 1 1 1 1 3 5 4
-2 -0 1 2 3 4 3 1 -1 -3 -3 -2 -1 0 3 5 1 -1 -2 2 1 0 0 0 1 0 1 5 6 4 1 1 4 6 6 2 1 1 1 1 1 -1 -4 -5 -6 -5 -4 -4 -1 0 2 3 3 4 4 3 2 3 2 1 0 -0 0 0 0 2 4 5 3
-3 -1 0 1 1 2 2 1 -4 -5 -3 2 0 1 3 3 -1 -3 -2 2 2 1 1 3 0 -1 1 6 6 4 1 2 3 5 5 2 1 0 0 1 0 -2 -5 -6 -6 -4 -2 1 1 2 2 3 4 4 3 2 2 2 2 0 -1 -1 -0 -1 0 3 4 3 2
-2 -1 -0 -0 -0 0 1 -0 -4 -4 -2 3 1 2 3 0 -2 -2 0 4 3 2 1 2 0 0 2 7 5 2 1 2 3 4 4 1 0 0 1 1 -1 -3 -5 -7 -5 -2 1 3 2 2 1 2 2 2 2 1 1 1 1 -0 -1 -1 -0 -0 2 2 2 0 4
-1 0 0 0 -1 -1 -1 -3 -6 -6 -4 0 2 3 2 -1 -3 -0 3 6 4 2 1 -1 -1 2 6 9 5 2 0 2 3 3 2 -0 -0 0 0 -0 -2 -3 -4 -5 -1 2 3 4 3 2 1 1 2 2 1 1 1 1 0 -1 -1 0 1 2 1 0 -0 2 7
-1 -0 1 1 -0 -1 -3 -5 -7 -6 -3 2 4 4 1 -2 -3 0 5 8 4 1 -1 -5 -1 6 12 10 5 2 0 1 2 2 0 -0 0 -0 -1 -2 -3 -5 -4 1 4 5 5 3 2 2 1 2 2 2 2 2 0 0 0 0 1 2 2 2 0 -1 1 6 9
0 -0 0 0 0 -1 -3 -4 -4 -0 5 9 5 2 -1 -3 -3 -1 3 5 2 -1 -3 -6 2 11 15 9 3 1 1 2 1 -1 -1 -1 0 0 -1 -2 -4 -4 -1 5 5 5 4 3 1 1 1 2 3 3 3 2 -0 -0 1 2 2 3 3 1 -1 1 4 10 8
3 1 1 1 0 -1 -2 -3 -1 5 9 8 2 -2 -3 -4 -3 -1 1 1 0 -2 -4 -4 7 14 14 4 3 3 2 0 -2 -3 -2 0 1 1 -1 -3 -3 0 5 5 4 4 3 2 1 1 1 2 3 3 1 -1 -1 1 3 3 3 3 2 -0 1 4 7 8 4
2 1 1 0 0 -1 -2 -2 2 6 7 1 -2 -4 -4 -4 -1 1 1 0 -1 -3 -5 -4 8 10 6 -3 3 3 -1 -2 -3 -2 -1 0 1 1 0 -2 2 6 7 3 4 4 3 1 1 1 2 3 4 2 0 -3 -1 2 4 3 3 3 2 1 4 6 7 5 2
1 1 0 -0 -0 -1 -1 -2 3 5 4 -2 -3 -4 -4 -2 0 1 0 -1 -2 -3 -4 -4 2 3 -1 -7 3 2 -2 -2 -2 -1 0 -1 1 1 1 3 8 7 5 3 4 3 2 1 1 2 3 3 2 1 1 1 3 4 4 3 3 3 4 5 8 8 6 3 0
1 1 1 0 0 -1 -1 -1 4 4 2 -0 -2 -3 -3 -0 0 -0 -1 -1 -2 -2 -3 -4 -2 -1 -1 -3 6 5 -0 -1 -2 -1 1 -1 0 -1 1 8 9 6 3 2 2 1 1 1 2 3 3 1 -0 -0 2 5 6 6 5 4 5 6 7 8 8 7 5 1 -2
0 1 1 0 -1 -1 0 5 5 4 2 1 -0 -1 -2 -0 -0 -0 -1 -1 0 1 0 -5 -4 -2 3 8 12 7 0 -1 -1 0 2 0 -1 -0 2 7 6 3 0 -1 -1 -0 0 1 2 3 2 -0 -1 0 3 6 6 6 6 6 7 8 8 7 6 5 3 1 -3
-1 -2 -2 -4 -3 -0 4 8 3 1 1 2 1 -1 -3 -1 -1 0 2 3 4 3 -1 -7 -6 -0 8 17 13 6 1 3 2 2 3 3 0 1 3 2 1 -0 -2 -2 -1 -1 1 2 2 1 0 -0 1 2 4 6 6 6 7 8 8 8 6 6 5 3 1 -1 -4
-2 -3 -3 -3 0 5 7 6 2 -0 -1 -1 -1 -3 -3 -1 0 2 6 9 4 -2 -6 -6 -2 8 16 17 6 1 2 8 5 3 3 5 2 1 1 -1 -1 -2 -1 -1 0 1 1 1 1 0 -0 1 3 5 6 6 7 7 8 8 7 5 5 5 4 2 -1 -3 -5
4 5 5 6 8 7 6 3 1 -0 -2 -4 -3 -1 2 5 6 6 4 3 -5 -7 -6 -1 7 15 17 7 -2 -3 2 11 6 2 1 6 2 1 0 -1 -1 0 1 2 2 2 2 2 2 1 0 1 3 4 5 6 7 7 7 6 4 3 3 3 2 -0 -3 -6 -6
11 12 12 10 7 5 2 1 0 -0 -1 -0 2 6 10 10 7 2 -3 -7 -9 -6 -1 5 9 10 6 -1 -3 -2 3 10 5 0 -1 3 2 1 1 1 2 3 4 4 4 4 3 3 3 3 2 1 2 2 3 5 5 5 4 3 2 2 1 0 -2 -4 -6 -6 -5
9 8 6 4 4 4 3 1 -0 -0 1 4 6 8 8 5 -0 -5 -9 -9 -6 0 6 8 4 0 -2 -0 0 1 3 6 2 0 -0 2 2 2 2 3 4 4 5 5 4 4 4 4 4 4 3 2 1 1 2 4 4 3 2 1 1 0 -1 -4 -5 -6 -5 -3 -0
7 6 6 6 7 6 3 -2 -2 -1 0 3 4 3 -0 -6 -11 -10 -5 5 6 8 8 4 -1 -1 0 4 2 0 0 3 3 3 3 3 4 4 4 4 5 5 5 4 4 4 4 5 4 3 2 1 1 2 3 3 2 1 1 0 -1 -2 -4 -5 -5 -4 -2 1 3
6 3 1 1 -1 -4 -5 -6 -3 -1 0 1 -2 -6 -11 -16 -11 1 14 21 13 7 3 -1 -1 2 5 5 1 -1 0 4 5 6 5 5 5 5 5 5 5 4 3 3 3 3 4 4 3 2 1 1 2 4 5 4 2 1 -1 -2 -4 -5 -5 -5 -3 -1 1 2 3
-5 -8 -11 -12 -14 -14 -12 -8 -5 -3 -4 -7 -9 -10 -9 -4 10 21 25 18 10 3 -1 -3 0 4 6 5 3 2 2 4 5 5 5 5 5 4 5 5 5 4 3 3 3 4 3 2 0 0 1 2 4 5 5 4 2 0 -1 -3 -5 -5 -4 -3 -1 0 1 2 3
-11 -14 -15 -17 -17 -15 -12 -9 -8 -9 -10 -11 -8 -3 5 15 23 22 17 9 5 3 0 -1 0 3 5 6 6 5 4 4 4 4 4 4 4 4 4 4 4 4 4 5 5 4 3 1 -1 -0 1 3 4 4 3 3 2 0 -1 -3 -4 -5 -4 -2 -0 1 2 3 3
-11 -10 -9 -8 -12 -13 -12 -11 -12 -12 -10 -6 1 7 12 17 16 13 9 5 5 4 2 0 0 2 5 7 7 6 5 5 4 3 2 3 3 4 4 4 5 5 5 4 4 3 2 1 -0 -0 1 2 1 0 -0 1 1 -1 -2 -3 -4 -5 -5 -3 -1 1 3 4 4
-5 1 8 12 0 -8 -11 -7 -1 5 11 14 14 12 11 11 9 7 6 5 4 3 2 2 2 4 6 6 6 5 5 4 4 4 3 3 3 4 4 5 5 4 3 2 2 1 1 1 0 1 1 1 -1 -3 -4 -3 -2 -2 -2 -2 -3 -4 -4 -3 -1 1 3 4 4
10 16 21 24 12 7 10 20 27 30 27 21 13 9 7 6 5 4 3 3 2 3 4 5 5 5 5 5 4 3 3 3 4 4 5 4 4 4 5 5 4 3 2 1 1 2 2 2 2 2 1 -1 -2 -3 -4 -4 -3 -3 -2 -2 -1 -1 -1 0 1 2 3 3 3
20 24 25 21 16 19 26 31 29 23 17 10 8 7 7 6 5 4 3 2 2 3 4 4 4 4 4 4 4 3 4 4 5 5 5 5 4 4 4 3 2 2 2 2 3 4 4 3 2 2 1 -1 -2 -2 -2 -2 -3 -2 -2 -2 -1 -0 1 2 2 3 3 3 2
13 14 11 4 5 10 15 18 13 8 4 3 5 7 8 7 6 5 5 4 4 3 3 3 3 3 4 3 3 3 4 4 5 4 4 3 3 4 3 1 1 2 4 6 6 5 4 3 1 1 1 -0 -1 -1 -1 -1 -2 -3 -3 -4 -2 -0 2 3 3 3 3 3 2
5 4 1 -2 -1 2 5 6 3 1 1 2 3 3 3 3 4 4 5 4 4 4 4 3 3 3 3 3 2 2 2 3 3 3 3 2 2 2 2 1 2 4 7 8 7 6 4 2 0 -1 -1 -2 -2 -2 -1 -1 -1 -3 -4 -5 -2 -0 2 3 3 3 3 3 2
-1 -0 -0 -1 0 2 3 3 2 2 2 1 1 0 -0 0 1 3 3 4 4 5 5 5 3 2 2 2 2 2 2 2 3 3 3 2 1 1 2 3 4 7 9 9 7 5 2 -1 -3 -4 -4 -4 -3 -2 -0 1 0 -2 -3 -2 1 3 5 5 4 4 4 4 2
-4 -4 -3 -1 1 3 4 4 4 3 2 1 1 0 -0 -0 1 2 3 3 3 3 3 3 2 1 1 2 2 3 4 4 4 5 5 4 3 3 2 2 4 7 8 7 4 1 -3 -6 -6 -6 -5 -4 -3 -0 2 4 3 3 3 5 7 7 7 5 4 4 3 2 0
-1 -2 -1 1 3 4 3 3 2 1 1 0 1 1 1 0 1 1 2 3 3 3 3 3 3 3 3 3 3 3 4 5 5 5 5 6 5 3 0 -1 2 4 5 4 -0 -4 -7 -9 -8 -6 -4 -2 1 4 7 8 7 6 5 4 3 2 2 1 1 1 1 0 -1
2 2 2 3 3 3 2 1 1 0 -1 -1 1 2 2 2 1 2 2 2 2 3 4 5 5 5 5 5 4 3 2 3 4 4 4 5 3 -0 -4 -5 -2 -0 1 -0 -4 -7 -9 -8 -5 -2 1 4 6 7 7 6 2 -0 -2 -3 -3 -2 -1 -0 0 1 1 1 1
2 2 3 3 3 2 2 2 2 1 0 -0 1 2 2 3 3 4 4 3 2 3 4 6 5 4 2 1 2 1 0 -1 -0 1 2 1 -2 -6 -9 -9 -6 -4 -3 -3 -5 -6 -5 -2 1 3 4 4 4 2 -1 -4 -6 -7 -6 -4 -2 -0 1 2 2 2 2 2 2
3 3 2 1 1 2 2 2 2 1 1 1 2 2 2 2 4 6 6 5 3 3 4 4 2 1 -1 -3 -2 -0 1 -0 -3 -3 -3 -3 -6 -8 -10 -10 -9 -7 -5 -3 -2 -0 1 3 4 4 2 -1 -4 -6 -7 -8 -7 -5 -2 -1 1 2 3 3 2 2 1 1 2
3 3 2 1 1 2 2 1 1 1 1 2 2 2 2 1 3 6 8 7 3 2 1 -1 -2 -2 -2 -4 -3 -1 1 1 -2 -4 -5 -4 -4 -6 -7 -9 -9 -6 -3 1 3 5 6 6 6 4 -0 -5 -7 -7 -6 -4 -2 -0 1 1 1 2 2 1 1 0 0 1 2
3 4 4 3 3 2 2 1 1 1 2 2 2 3 3 1 2 5 7 7 3 0 -2 -5 -5 -3 -2 -2 -3 -2 0 2 1 -1 -4 -4 -3 -3 -5 -7 -6 -2 1 5 6 6 6 5 4 2 -0 -3 -4 -3 -2 -1 0 1 1 1 1 1 1 1 0 -0 0 1 1
3 3 4 3 3 2 1 0 1 2 3 2 2 3 3 2 2 3 3 3 2 -1 -4 -6 -5 -2 -1 -1 -3 -2 -1 1 2 -0 -3 -5 -3 -2 -3 -4 -3 -1 2 4 5 4 4 3 2 2 2 1 1 1 1 0 0 0 1 2 1 0 0 1 0 0 0 0 0
2 2 1 1 0 -0 -1 -1 0 1 1 1 1 2 3 2 2 1 1 0 0 -1 -3 -4 -3 -1 -0 -1 -2 -2 -2 -0 0 -1 -3 -4 -2 -1 -1 -2 -3 -3 -1 0 1 2 2 2 3 4 5 4 4 3 2 1 0 0 1 1 1 0 -0 -0 0 0 0 -0 -0
Height
1368 1369 1370 1371 1372 1372 1373 1373 1374 1374 1375 1376 1377 1378 1380 1381 1381 1382 1382 1383 1384 1385 1385 1386 1387 1387 1388 1389 1390 1392 1393 1395 1397 1399 1402 1404 1406 1408 1411 1413 1415 1417 1418 1420 1422 1424 1426 1427 1429 1431 1432 1433 1434 1436 1437 1438 1439 1440 1441 1442 1443 1444 1444 1445 1446 1447 1449 1451 1452
1367 1367 1368 1369 1370 1371 1372 1372 1373 1373 1374 1375 1376 1377 1379 1380 1381 1381 1382 1382 1383 1384 1385 1386 1386 1387 1388 1388 1390 1391 1392 1394 1396 1399 1401 1404 1406 1408 1410 1412 1414 1416 1417 1419 1421 1423 1425 1427 1428 1430 1431 1432 1433 1434 1436 1437 1438 1439 1440 1441 1442 1443 1444 1445 1446 1447 1449 1451 1452
1365 1366 1367 1368 1369 1370 1370 1371 1372 1372 1373 1374 1375 1377 1378 1379 1380 1380 1381 1382 1382 1383 1384 1385 1386 1386 1387 1388 1389 1390 1392 1393 1396 1398 1401 1403 1405 1407 1409 1412 1413 1415 1416 1418 1420 1422 1424 1426 1427 1428 1429 1431 1432 1433 1434 1436 1437 1438 1439 1440 1441 1442 1443 1444 1445 1447 1448 1450 1452
1364 1365 1366 1367 1368 1369 1369 1370 1371 1372 1372 1373 1375 1376 1377 1378 1379 1379 1380 1381 1382 1383 1383 1384 1385 1386 1386 1387 1388 1389 1391 1393 1395 1398 1400 1402 1404 1407 1409 1411 1412 1414 1416 1417 1419 1421 1423 1425 1426 1427 1428 1429 1431 1432 1433 1435 1436 1437 1438 1439 1440 1441 1442 1443 1445 1446 1448 1450 1452
1362 1363 1364 1366 1367 1368 1369 1369 1370 1371 1372 1373 1375 1376 1377 1377 1378 1379 1380 1380 1382 1382 1383 1383 1384 1385 1386 1387 1388 1389 1391 1392 1395 1397 1400 1402 1403 1406 1408 1410 1412 1413 1415 1417 1418 1420 1422 1424 1425 1426 1427 1428 1430 1431 1433 1434 1435 1437 1437 1438 1439 1440 1442 1443 1444 1446 1447 1449 1451
1361 1362 1363 1365 1366 1367 1368 1369 1370 1371 1372 1373 1374 1375 1376 1377 1377 1378 1379 1380 1381 1382 1382 1383 1383 1384 1385 1386 1388 1389 1391 1392 1395 1397 1399 1401 1403 1405 1407 1409 1411 1413 1414 1416 1417 1419 1421 1422 1424 1425 1426 1428 1429 1431 1432 1433 1434 1436 1437 1437 1438 1439 1441 1442 1444 1445 1447 1449 1451
1361 1362 1363 1364 1365 1367 1367 1368 1369 1370 1372 1373 1374 1375 1376 1377 1377 1378 1379 1380 1381 1382 1382 1382 1383 1384 1385 1386 1387 1389 1391 1392 1395 1397 1399 1401 1402 1405 1407 1408 1411 1412 1414 1415 1417 1418 1420 1422 1423 1424 1426 1427 1429 1430 1432 1432 1433 1434 1436 1437 1437 1439 1440 1442 1443 1445 1447 1449 1451
1361 1362 1362 1363 1365 1366 1367 1368 1369 1370 1371 1372 1373 1374 1375 1376 1377 1377 1378 1380 1381 1381 1382 1382 1382 1383 1385 1386 1387 1389 1391 1392 1394 1397 1398 1400 1402 1404 1407 1408 1410 1412 1413 1414 1416 1418 1420 1422 1422 1423 1425 1427 1428 1430 1431 1432 1432 1433 1435 1436 1437 1438 1440 1442 1443 1446 1447 1449 1450
1360 1361 1362 1363 1364 1365 1367 1368 1369 1370 1371 1372 1373 1374 1375 1376 1376 1377 1378 1380 1380 1381 1381 1382 1382 1383 1385 1386 1388 1389 1391 1393 1394 1396 1398 1400 1402 1404 1406 1407 1409 1411 1412 1414 1416 1418 1419 1421 1422 1423 1424 1426 1427 1429 1430 1431 1432 1433 1434 1435 1436 1438 1439 1442 1444 1446 1447 1449 1451
1360 1361 1362 1363 1364 1365 1367 1368 1368 1369 1371 1372 1373 1374 1375 1375 1376 1377 1378 1379 1380 1381 1381 1382 1382 1383 1385 1387 1388 1390 1391 1393 1395 1396 1398 1400 1402 1404 1405 1407 1408 1410 1412 1414 1416 1417 1418 1420 1421 1422 1424 1426 1427 1428 1429 1430 1431 1432 1433 1434 1436 1437 1439 1442 1444 1446 1448 1449 1451
1360 1361 1362 1363 1364 1365 1366 1367 1368 1369 1370 1372 1373 1374 1374 1375 1376 1377 1378 1379 1380 1381 1381 1382 1382 1383 1385 1387 1389 1390 1392 1393 1395 1396 1398 1400 1402 1403 1405 1406 1407 1409 1412 1414 1415 1417 1417 1419 1421 1422 1424 1425 1427 1428 1429 1430 1431 1432 1433 1434 1436 1437 1439 1442 1444 1446 1448 1450 1451
1361 1362 1362 1363 1364 1365 1366 1367 1368 1369 1371 1372 1373 1373 1374 1375 1376 1377 1378 1379 1380 1381 1382 1382 1382 1383 1385 1387 1389 1391 1392 1393 1395 1396 1398 1400 1402 1403 1405 1406 1407 1410 1412 1413 1414 1416 1417 1419 1420 1422 1424 1425 1427 1427 1429 1430 1431 1432 1433 1434 1436 1438 1440 1442 1444 1446 1448 1449 1450
1361 1362 1362 1363 1364 1366 1366 1367 1368 1369 1371 1372 1372 1373 1374 1375 1377 1377 1378 1379 1380 1381 1382 1382 1383 1384 1386 1387 1389 1391 1392 1393 1395 1396 1398 1400 1402 1403 1405 1406 1408 1410 1412 1413 1414 1416 1417 1418 1420 1422 1423 1425 1426 1427 1429 1430 1431 1432 1433 1434 1436 1438 1440 1442 1445 1446 1447 1448 1449
1362 1362 1363 1364 1365 1366 1367 1367 1369 1370 1371 1372 1373 1373 1374 1376 1377 1378 1379 1380 1381 1381 1382 1382 1383 1385 1386 1387 1390 1392 1393 1394 1395 1397 1398 1400 1402 1403 1405 1407 1408 1410 1411 1413 1414 1416 1417 1419 1420 1422 1423 1425 1427 1428 1429 1430 1431 1432 1433 1435 1437 1439 1441 1443 1444 1446 1447 1447 1448
1363 1363 1364 1365 1366 1367 1367 1368 1369 1371 1372 1372 1373 1374 1375 1376 1377 1378 1379 1380 1381 1381 1382 1382 1383 1384 1386 1387 1390 1392 1393 1394 1396 1397 1399 1400 1402 1403 1405 1407 1408 1410 1411 1413 1414 1416 1417 1419 1421 1422 1424 1426 1427 1429 1429 1430 1431 1432 1433 1435 1437 1439 1441 1442 1444 1445 1447 1447 1449
1364 1365 1366 1366 1367 1367 1368 1370 1371 1371 1372 1373 1374 1375 1375 1376 1377 1378 1379 1380 1381 1382 1382 1382 1383 1384 1385 1387 1390 1392 1393 1394 1396 1398 1399 1400 1402 1403 1405 1407 1408 1410 1411 1413 1414 1416 1418 1419 1421 1423 1425 1427 1428 1429 1429 1430 1431 1432 1434 1436 1438 1439 1441 1442 1444 1445 1447 1448 1449
1366 1367 1367 1367 1368 1368 1370 1371 1372 1372 1373 1373 1374 1375 1376 1377 1377 1378 1379 1380 1381 1382 1382 1382 1383 1384 1386 1388 1391 1392 1393 1395 1396 1398 1399 1401 1402 1404 1405 1407 1408 1410 1412 1413 1415 1417 1418 1420 1422 1423 1425 1427 1428 1429 1429 1430 1432 1433 1435 1437 1438 1440 1441 1442 1444 1445 1447 1449 1450
1368 1368 1368 1369 1369 1370 1371 1372 1372 1373 1373 1374 1375 1375 1376 1377 1378 1379 1380 1381 1382 1382 1382 1382 1383 1385 1387 1389 1391 1392 1394 1396 1397 1398 1400 1401 1402 1404 1406 1407 1409 1410 1412 1414 1415 1417 1418 1420 1422 1424 1425 1427 1427 1428 1429 1431 1432 1434 1436 1437 1438 1440 1441 1442 1444 1446 1448 1449 1451
1369 1369 1370 1370 1371 1372 1372 1373 1373 1374 1374 1375 1375 1376 1377 1378 1379 1379 1380 1381 1382 1382 1382 1383 1385 1387 1388 1390 1391 1392 1394 1397 1398 1399 1400 1402 1403 1404 1406 1408 1409 1411 1412 1414 1416 1417 1419 1421 1422 1424 1425 1426 1427 1428 1430 1432 1433 1434 1436 1437 1438 1440 1441 1443 1445 1447 1449 1450 1451
1370 1371 1371 1372 1372 1372 1373 1373 1374 1374 1375 1376 1376 1377 1378 1379 1379 1379 1381 1382 1382 1383 1384 1385 1387 1388 1389 1391 1392 1394 1396 1397 1398 1400 1401 1402 1404 1405 1407 1408 1410 1411 1413 1414 1416 1417 1419 1421 1422 1423 1425 1426 1427 1429 1430 1432 1433 1434 1436 1437 1438 1440 1442 1444 1446 1448 1449 1451 1452
1372 1372 1372 1373 1373 1373 1374 1374 1375 1375 1376 1376 1377 1377 1378 1378 1379 1380 1381 1382 1383 1384 1386 1387 1388 1389 1391 1392 1394 1395 1397 1398 1399 1400 1401 1402 1404 1406 1407 1408 1410 1412 1413 1415 1416 1418 1419 1420 1422 1423 1424 1426 1427 1429 1431 1432 1433 1434 1436 1437 1439 1441 1443 1445 1447 1449 1450 1452 1453
1373 1373 1373 1373 1374 1374 1374 1374 1375 1375 1376 1377 1377 1378 1378 1379 1380 1381 1382 1384 1385 1386 1387 1389 1390 1391 1392 1394 1395 1396 1397 1398 1399 1400 1402 1403 1405 1406 1408 1409 1410 1412 1413 1415 1416 1418 1419 1420 1422 1423 1425 1426 1427 1429 1431 1432 1433 1434 1436 1438 1440 1442 1444 1446 1448 1450 1452 1453 1454
1374 1374 1374 1374 1374 1375 1375 1375 1376 1376 1377 1377 1378 1379 1380 1381 1381 1382 1384 1385 1386 1387 1389 1390 1391 1392 1394 1395 1395 1396 1397 1399 1400 1401 1402 1404 1405 1407 1408 1410 1411 1412 1414 1415 1417 1418 1419 1420 1422 1423 1425 1426 1428 1429 1431 1432 1433 1435 1437 1439 1441 1443 1445 1447 1449 1451 1452 1454 1455
1374 1375 1375 1376 1376 1376 1377 1377 1377 1378 1378 1379 1380 1381 1382 1382 1383 1384 1386 1386 1387 1388 1390 1391 1392 1394 1395 1395 1396 1397 1398 1399 1401 1402 1404 1405 1406 1407 1409 1410 1412 1413 1414 1416 1417 1418 1419 1420 1422 1423 1425 1426 1428 1429 1431 1432 1434 1436 1437 1440 1442 1444 1446 1448 1450 1452 1453 1454 1455
1377 1377 1377 1378 1378 1379 1379 1379 1379 1380 1380 1381 1381 1382 1382 1383 1385 1386 1387 1387 1389 1390 1391 1392 1393 1394 1395 1396 1397 1398 1399 1401 1402 1403 1404 1406 1407 1408 1410 1411 1412 1414 1415 1417 1418 1419 1420 1421 1422 1423 1425 1427 1428 1430 1431 1433 1435 1437 1439 1441 1443 1445 1447 1449 1451 1452 1453 1454 1455
1378 1379 1379 1380 1379 1380 1380 1380 1381 1381 1382 1382 1383 1383 1384 1386 1387 1387 1388 1389 1390 1391 1392 1393 1394 1395 1396 1397 1398 1399 1401 1402 1403 1404 1405 1406 1408 1409 1410 1412 1413 1415 1416 1417 1418 1419 1420 1421 1422 1423 1425 1427 1428 1430 1432 1435 1437 1439 1441 1443 1445 1447 1448 1450 1451 1452 1453 1454 1455
1379 1379 1380 1380 1380 1380 1380 1380 1381 1382 1383 1384 1385 1386 1387 1387 1388 1389 1389 1390 1391 1392 1393 1394 1395 1396 1397 1398 1399 1401 1402 1403 1404 1405 1406 1407 1408 1410 1411 1412 1414 1415 1416 1417 1418 1419 1420 1421 1423 1424 1426 1427 1429 1431 1433 1436 1438 1441 1443 1445 1447 1448 1449 1450 1452 1452 1453 1454 1455
1379 1379 1380 1380 1381 1381 1381 1382 1384 1385 1386 1386 1387 1387 1388 1389 1389 1390 1390 1391 1392 1393 1394 1395 1396 1397 1398 1400 1401 1402 1403 1404 1405 1406 1407 1408 1410 1411 1412 1413 1414 1415 1416 1417 1418 1420 1421 1422 1424 1426 1427 1429 1431 1433 1435 1437 1440 1442 1444 1446 1448 1449 1451 1452 1452 1453 1454 1455 1456
1380 1381 1381 1382 1382 1383 1384 1385 1385 1386 1387 1387 1388 1388 1389 1390 1390 1391 1392 1392 1393 1394 1396 1397 1398 1399 1400 1401 1402 1403 1404 1405 1406 1407 1408 1410 1411 1412 1412 1413 1414 1416 1417 1418 1419 1420 1422 1423 1425 1427 1429 1431 1433 1435 1437 1439 1442 1443 1445 1447 1449 1451 1452 1453 1454 1455 1455 1456 1457
1383 1384 1384 1384 1384 1385 1386 1386 1387 1387 1388 1389 1389 1390 1391 1391 1392 1392 1393 1394 1395 1396 1397 1398 1399 1400 1401 1402 1403 1404 1405 1407 1407 1408 1409 1410 1411 1412 1413 1414 1415 1417 1418 1419 1421 1422 1423 1425 1427 1429 1431 1433 1435 1437 1439 1441 1443 1445 1446 1448 1450 1452 1453 1454 1455 1456 1456 1457 1457
1387 1387 1386 1386 1387 1387 1387 1388 1389 1389 1390 1391 1391 1392 1392 1392 1393 1394 1395 1396 1397 1398 1399 1399 1400 1401 1402 1403 1404 1405 1407 1407 1409 1410 1410 1411 1412 1412 1414 1415 1417 1418 1420 1421 1422 1424 1425 1427 1430 1432 1434 1436 1438 1440 1442 1443 1444 1446 1447 1449 1451 1453 1454 1455 1456 1456 1457 1457 1458
1389 1389 1389 1389 1389 1390 1390 1391 1391 1392 1392 1392 1393 1393 1394 1394 1395 1396 1397 1398 1398 1399 1400 1401 1402 1403 1404 1405 1406 1407 1408 1409 1410 1411 1412 1412 1413 1414 1416 1417 1419 1421 1422 1424 1425 1427 1428 1431 1433 1436 1437 1439 1441 1442 1443 1444 1445 1447 1448 1450 1452 1453 1454 1455 1456 1457 1457 1458 1458
1392 1392 1392 1392 1392 1392 1393 1393 1393 1393 1394 1394 1395 1395 1396 1397 1397 1398 1399 1400 1400 1401 1402 1403 1403 1404 1405 1406 1407 1408 1410 1411 1412 1412 1413 1414 1415 1416 1417 1420 1422 1424 1425 1427 1428 1430 1432 1434 1436 1438 1440 1442 1442 1443 1444 1445 1446 1448 1449 1451 1452 1453 1454 1455 1456 1457 1458 1458 1459
1394 1395 1395 1394 1394 1395 1395 1395 1395 1396 1396 1396 1397 1397 1398 1399 1399 1400 1401 1402 1402 1403 1404 1404 1405 1406 1407 1408 1409 1410 1412 1413 1414 1415 1416 1417 1417 1418 1420 1422 1425 1427 1429 1430 1432 1433 1435 1437 1439 1441 1442 1443 1443 1444 1445 1446 1447 1449 1450 1452 1453 1454 1455 1456 1457 1458 1459 1460 1460
1397 1397 1397 1397 1397 1397 1397 1397 1397 1397 1398 1398 1399 1400 1400 1401 1402 1402 1403 1404 1404 1405 1406 1407 1407 1408 1409 1411 1412 1412 1414 1415 1416 1417 1418 1419 1420 1421 1423 1425 1428 1430 1432 1433 1435 1437 1438 1440 1441 1442 1443 1444 1445 1446 1447 1448 1449 1451 1452 1453 1455 1456 1457 1457 1458 1459 1460 1461 1461
1399 1399 1398 1398 1399 1399 1399 1399 1400 1400 1400 1401 1402 1402 1403 1403 1404 1405 1406 1406 1406 1407 1407 1409 1410 1411 1412 1413 1415 1416 1417 1418 1419 1420 1421 1422 1423 1424 1426 1428 1431 1433 1435 1437 1438 1439 1441 1442 1443 1444 1445 1446 1447 1448 1449 1450 1451 1452 1454 1455 1456 1456 1457 1458 1459 1460 1460 1461 1462
1401 1401 1401 1401 1401 1401 1402 1402 1402 1402 1403 1403 1404 1404 1405 1406 1407 1407 1408 1408 1408 1409 1410 1411 1412 1414 1415 1416 1418 1419 1421 1421 1422 1423 1424 1426 1427 1428 1429 1432 1434 1436 1438 1439 1440 1441 1442 1444 1445 1446 1447 1448 1449 1450 1451 1452 1452 1453 1454 1455 1456 1457 1457 1458 1459 1460 1461 1461 1462
1404 1403 1403 1403 1403 1404 1404 1404 1404 1405 1405 1406 1406 1407 1407 1408 1409 1410 1411 1411 1411 1412 1413 1414 1416 1417 1418 1420 1421 1422 1424 1425 1426 1426 1427 1429 1430 1431 1432 1434 1436 1438 1440 1441 1442 1443 1444 1446 1447 1448 1449 1450 1451 1451 1452 1452 1453 1454 1455 1456 1457 1457 1458 1459 1460 1461 1461 1462 1462
1406 1406 1406 1406 1406 1406 1406 1407 1407 1407 1407 1408 1408 1409 1410 1410 1411 1412 1413 1414 1414 1415 1416 1417 1418 1420 1422 1422 1423 1425 1426 1427 1428 1429 1430 1432 1434 1435 1436 1437 1438 1440 1441 1442 1443 1445 1446 1447 1449 1450 1451 1452 1452 1452 1453 1453 1454 1455 1456 1457 1457 1458 1459 1460 1460 1461 1461 1462 1462
1408 1408 1408 1408 1408 1408 1408 1408 1409 1409 1410 1410 1411 1411 1412 1412 1413 1415 1416 1416 1417 1418 1419 1420 1421 1423 1424 1425 1426 1427 1428 1430 1431 1432 1434 1435 1437 1438 1439 1439 1440 1442 1443 1444 1446 1447 1448 1450 1451 1452 1452 1452 1453 1453 1454 1455 1455 1456 1457 1458 1459 1459 1460 1460 1461 1461 1462 1462 1463
1410 1410 1410 1410 1410 1410 1410 1411 1411 1412 1412 1412 1413 1414 1414 1415 1416 1417 1418 1419 1419 1420 1421 1422 1424 1425 1426 1427 1428 1429 1430 1432 1433 1435 1437 1438 1439 1441 1441 1442 1443 1444 1445 1447 1448 1449 1450 1451 1452 1452 1453 1453 1454 1455 1456 1456 1457 1457 1458 1459 1460 1460 1460 1461 1461 1462 1462 1462 1463